RH
102 103 103 101 101 101 101 101 101 100 100 101 100 100 100 100 100 100 100 100 100 100 100 100 100 100 100 99 97 95 93 88 83 75 67 57 48 40 33 27 22 19 17 15 15 15 16 18 19 21 22 23 24 26 27 27 28 29 29 29 30 29 28 27 26 25 25 24 24 22 22 21 21 21 20 19 19 19 18 18 18 17 17 17 17
101 101 101 100 100 101 101 101 100 100 100 100 100 100 100 100 100 100 100 100 100 100 100 100 99 98 95 91 86 78 70 60 51 42 34 28 24 21 19 18 17 17 18 19 21 23 25 27 28 29 30 30 31 32 32 32 32 32 32 31 31 30 29 28 27 25 25 24 23 22 21 20 20 19 18 18 17 16 16 16 16 16 15 15 15
101 101 101 101 101 101 101 101 100 101 101 101 101 100 100 100 100 100 100 100 100 99 97 94 88 81 73 64 54 45 37 30 25 22 21 20 19 20 21 22 23 25 27 29 31 32 33 34 35 35 35 35 35 35 34 34 33 33 32 31 29 28 27 26 25 23 22 22 21 20 19 19 19 19 18 17 17 17 16 17 17 17 17 17 17
102 102 102 101 101 101 101 101 101 101 100 100 100 100 100 101 100 100 98 94 89 83 74 65 56 47 39 33 28 24 22 21 21 21 22 24 26 27 29 31 33 34 36 37 38 39 39 39 38 38 38 37 36 35 34 33 32 30 29 28 26 25 24 23 22 21 21 20 20 20 20 20 20 21 21 21 21 21 21 21 21 21 21 21 21
102 102 102 101 100 100 99 100 100 100 101 101 101 100 98 94 89 83 75 66 58 49 42 35 30 27 24 23 22 22 22 24 25 27 30 32 35 37 38 39 40 41 42 43 43 43 42 41 40 39 37 36 35 33 32 30 29 27 26 25 24 23 23 23 23 23 23 24 25 25 26 26 26 27 26 26 26 26 25 25 24 24 23 23 22
100 100 100 100 100 101 101 101 101 100 97 93 89 83 75 67 59 51 44 38 33 30 27 26 25 24 24 25 25 27 28 31 34 36 39 42 44 45 45 46 46 46 46 46 45 43 42 40 38 37 35 33 32 30 29 27 26 25 25 25 26 27 28 29 30 31 31 31 31 31 30 30 29 28 27 26 25 24 24 23 23 22 22 21 21
101 101 101 101 100 97 94 90 85 78 72 65 58 52 46 41 36 32 30 28 26 26 26 27 27 28 29 30 32 35 37 40 43 46 48 50 51 51 50 50 49 48 47 45 43 41 39 37 35 33 31 30 28 27 27 27 27 28 30 31 32 34 34 35 35 34 34 33 31 30 29 27 26 25 24 24 23 21 20 20 19 19 18 18 17
93 90 86 81 76 70 65 60 55 50 46 42 38 35 33 31 29 28 28 28 28 29 30 31 33 34 37 40 42 45 47 50 52 54 55 55 55 53 52 50 48 46 44 41 39 37 35 33 31 30 29 28 28 29 30 32 34 35 36 36 36 36 35 34 33 32 30 29 28 26 25 24 23 22 21 19 18 17 16 14 13 13 12 12 11
65 60 56 52 49 47 45 42 40 37 35 34 32 31 31 31 31 31 32 33 34 35 37 39 42 45 48 51 54 55 57 57 58 58 58 56 54 51 49 46 43 41 38 36 34 33 31 30 30 30 31 32 34 35 36 37 37 38 37 36 34 33 32 31 30 28 27 26 24 23 21 20 18 16 15 14 12 11 10 10 9 8 8 7 7
48 46 45 43 42 41 39 37 36 35 34 34 35 35 35 36 36 37 38 40 42 45 48 51 55 58 60 62 63 62 62 60 59 57 55 52 49 46 43 40 38 35 34 33 32 32 32 33 34 34 35 37 37 38 37 36 36 36 34 33 32 30 29 28 26 24 22 20 19 17 15 14 12 11 10 9 8 7 7 6 6 6 6 6 5
46 45 43 42 41 40 40 40 39 39 39 39 39 39 40 41 43 45 48 51 55 58 61 64 66 67 67 66 65 63 60 57 54 51 48 45 42 40 37 35 34 34 34 35 36 36 36 36 37 37 37 37 37 37 36 35 34 33 31 29 27 26 24 22 20 19 17 15 13 12 10 9 8 7 7 6 6 6 6 6 6 6 6 6 6
47 46 46 46 46 45 45 44 43 43 42 43 44 46 49 52 55 58 61 65 68 70 71 72 71 69 67 64 61 57 54 51 47 44 41 39 37 35 34 34 35 36 37 38 39 39 38 38 37 37 37 37 36 35 33 32 30 28 27 25 23 21 19 17 15 14 12 10 9 8 7 7 7 6 7 7 6 7 7 7 7 6 6 6 6
51 50 50 50 49 48 47 46 46 48 49 52 55 58 62 65 68 71 73 75 75 75 73 71 68 64 61 57 53 49 46 42 39 36 35 36 37 36 36 37 37 38 39 39 40 40 40 39 37 36 35 34 33 31 29 28 26 24 22 20 18 16 14 12 10 9 8 7 7 7 7 7 7 7 7 7 7 7 7 7 7 7 7 7 7
55 54 53 53 52 51 52 54 57 59 63 66 70 73 76 78 79 79 79 77 75 72 68 64 60 55 51 47 43 40 38 36 36 35 35 37 38 37 37 37 38 40 40 39 40 39 38 37 35 33 31 30 28 27 25 24 22 20 17 15 13 11 9 8 8 7 7 7 7 8 8 8 8 8 8 8 8 7 7 7 7 7 8 8 8
60 59 59 60 61 63 66 69 72 75 78 81 83 85 85 84 82 79 76 72 68 63 58 53 49 45 42 39 38 37 37 37 37 36 36 37 36 35 35 35 36 37 37 37 36 35 34 33 31 30 28 27 25 24 22 19 16 14 12 10 9 8 8 8 8 8 9 9 9 9 9 9 9 9 9 9 9 8 9 8 8 8 8 8 8
69 70 72 75 77 79 81 83 85 87 89 90 89 87 84 80 76 71 66 61 56 51 47 43 40 39 38 37 38 37 37 36 35 34 34 34 33 31 30 31 32 32 32 32 32 32 31 30 29 27 25 24 22 19 16 14 11 9 9 8 8 9 9 9 10 10 10 10 10 10 10 11 11 10 10 10 9 9 9 9 9 9 8 8 9
83 84 86 88 89 90 91 91 92 91 90 88 85 81 76 69 64 58 52 48 44 41 39 38 38 38 38 37 35 33 31 29 27 27 28 29 29 27 27 28 29 29 30 30 30 30 29 28 26 24 21 19 16 14 11 10 9 9 9 9 10 10 10 11 11 11 12 12 12 13 13 13 13 13 12 12 11 11 10 10 10 10 9 9 9
94 95 95 96 96 95 94 92 90 87 84 79 73 67 61 55 50 46 42 40 39 39 39 38 36 33 30 26 23 21 20 20 20 22 24 27 27 26 27 28 29 30 30 30 29 28 26 24 21 18 16 13 11 10 9 9 9 10 10 11 11 11 12 13 14 14 15 15 15 15 15 15 15 16 16 16 15 15 14 13 11 11 11 11 11
99 99 99 98 96 93 91 87 82 77 71 64 58 52 47 44 42 41 41 40 39 37 32 27 23 19 16 15 15 15 16 17 19 20 23 26 28 29 29 30 31 31 30 28 27 24 21 18 15 13 11 10 9 9 9 10 11 11 11 12 12 13 15 15 16 17 17 18 18 18 19 20 20 20 20 20 19 18 16 14 12 12 12 13 14
100 99 96 94 91 86 82 75 68 61 55 49 46 43 41 42 42 41 39 34 28 22 17 14 13 12 13 14 15 16 17 18 20 22 25 29 32 32 32 31 31 29 27 24 21 18 15 13 11 10 10 10 10 11 11 11 12 12 12 13 14 16 17 17 17 18 18 19 20 22 23 23 23 23 22 21 20 19 17 14 13 13 14 15 18
96 94 90 86 80 73 66 59 53 49 45 43 43 43 42 41 37 31 24 18 15 13 13 14 14 15 16 17 18 19 20 22 24 27 29 32 33 33 31 29 27 24 20 17 14 12 11 10 10 10 11 11 12 12 12 13 13 14 14 15 16 16 17 18 19 19 19 20 22 24 24 24 24 24 24 22 21 19 16 15 15 16 18 20 23
90 85 79 72 64 57 52 48 46 45 44 44 44 41 36 29 22 17 14 13 14 15 17 18 18 19 19 20 21 23 25 27 30 31 33 33 32 30 26 23 20 17 14 12 11 10 11 11 11 12 12 13 13 14 15 15 16 17 17 17 17 17 18 19 19 19 19 21 24 26 25 25 26 27 26 24 22 19 17 17 18 20 24 29 32
79 71 63 57 52 49 47 46 46 46 45 42 35 27 20 15 14 14 16 17 19 20 21 21 21 22 22 23 25 28 30 32 33 33 32 30 27 23 19 16 14 12 11 11 11 12 13 13 14 14 14 15 15 16 17 18 18 19 19 19 20 20 20 20 19 19 21 24 26 28 27 27 29 29 27 25 22 19 18 20 23 26 31 38 42
64 58 54 51 50 49 48 48 46 42 35 27 19 15 14 16 17 20 21 22 23 23 23 24 24 24 25 27 30 32 33 34 33 31 28 24 20 17 14 12 11 11 12 13 14 14 15 15 15 16 16 17 17 18 19 20 20 21 21 22 22 22 21 21 20 23 26 28 30 30 30 31 32 31 28 25 22 20 20 23 28 32 36 44 48
57 54 52 51 50 50 48 43 36 27 19 15 15 16 19 21 22 24 25 25 26 25 25 26 26 28 30 32 35 36 35 33 30 26 22 18 14 13 12 12 13 13 14 15 16 17 17 17 17 18 18 19 20 21 22 22 23 23 23 24 23 23 23 23 24 28 31 32 33 34 35 37 36 32 29 26 23 20 20 26 33 38 42 49 54
55 54 53 52 50 45 37 27 20 16 15 17 19 21 23 25 27 28 28 28 27 27 28 28 30 32 34 36 37 35 31 27 23 19 15 13 12 12 13 14 15 16 17 17 18 18 18 19 19 20 21 22 22 24 24 25 25 24 24 24 24 24 25 25 28 32 35 35 36 38 41 42 38 34 30 27 24 21 21 28 37 42 47 52 56
56 55 53 48 40 30 21 16 15 17 20 22 24 26 28 30 30 30 30 30 30 29 30 31 33 36 37 36 34 29 24 19 16 14 12 12 13 14 15 16 18 18 19 19 19 20 20 21 22 22 23 23 24 25 25 26 26 26 26 27 27 28 29 30 32 35 37 39 40 42 46 45 39 34 31 27 24 22 23 29 38 44 48 51 54
56 52 44 34 24 18 16 18 20 22 24 26 29 31 32 33 33 33 33 32 31 31 33 35 37 37 35 32 27 22 17 14 13 12 13 13 15 16 17 18 19 20 20 21 21 22 22 23 23 24 25 25 26 27 28 29 30 30 31 32 33 34 34 35 37 38 39 40 42 45 48 47 40 35 32 29 25 24 26 32 40 46 49 51 52
50 40 29 22 19 18 20 22 24 26 28 31 33 35 36 36 36 35 35 34 33 35 36 38 38 35 30 24 19 16 14 13 13 14 15 15 16 17 18 20 20 21 22 22 23 23 24 25 26 27 28 29 30 30 31 32 33 33 34 36 37 38 39 40 41 42 43 44 46 49 51 48 41 36 33 30 26 25 29 37 45 49 52 54 54
38 28 22 21 21 23 25 26 28 30 32 34 36 38 39 39 38 37 36 36 36 38 39 38 34 28 22 17 15 14 14 14 15 16 16 17 19 19 20 22 23 24 25 26 27 28 30 32 33 34 35 36 37 37 37 36 36 36 36 37 39 41 44 46 46 46 48 49 50 53 55 50 42 38 35 31 29 29 34 42 48 51 53 56 58
29 25 24 25 25 27 29 31 32 34 35 38 40 41 41 41 40 38 38 38 39 39 37 33 27 21 17 15 14 15 16 17 17 18 19 20 22 23 24 26 27 29 31 32 33 33 34 36 38 38 40 42 44 46 47 45 43 42 40 41 42 45 49 51 51 51 52 53 54 58 57 50 43 40 36 32 30 32 37 46 50 52 55 60 62
29 28 28 29 30 32 33 34 35 37 40 42 43 43 43 42 41 40 40 41 40 37 32 26 20 17 15 15 16 17 17 19 20 21 23 25 26 27 28 28 28 30 31 31 32 32 31 33 35 36 38 41 45 50 54 55 53 49 46 45 47 50 52 54 55 56 56 56 59 62 60 52 45 42 38 33 32 34 40 48 53 55 60 65 67
33 32 33 34 35 36 37 38 40 43 46 47 46 46 45 44 43 43 43 41 37 32 25 20 17 16 16 17 18 19 20 22 24 26 27 28 28 28 27 26 26 27 28 29 30 30 30 31 32 34 37 40 43 49 55 60 62 58 51 48 49 52 56 57 58 60 59 58 61 65 61 53 47 44 40 35 33 36 43 50 55 59 63 68 70
39 39 39 40 40 40 41 43 46 49 50 50 49 48 47 47 47 46 43 38 31 24 19 17 17 17 18 20 22 24 25 26 27 27 28 28 29 28 28 28 28 29 30 31 32 33 33 34 35 37 40 42 44 49 56 64 70 68 59 51 49 51 56 59 61 62 61 60 64 67 62 54 50 47 42 37 36 40 46 52 57 61 64 67 70
46 46 45 45 45 45 47 50 53 53 52 52 51 50 50 50 49 45 38 30 23 19 18 19 20 22 24 27 28 29 28 27 26 26 28 30 32 32 33 33 33 33 33 34 37 38 39 40 41 43 46 47 49 53 60 70 78 76 67 56 50 49 55 60 63 63 62 62 67 69 64 56 53 49 43 39 39 43 50 56 59 61 63 65 67
53 52 52 52 51 53 55 56 57 56 55 55 54 53 53 51 47 40 31 23 19 18 19 20 23 26 30 32 32 31 29 28 27 28 30 33 35 37 38 39 39 40 39 39 41 43 43 43 45 47 50 53 54 58 65 76 84 83 73 61 51 49 53 60 64 65 63 63 70 72 66 59 56 52 46 42 41 44 51 57 60 61 62 65 68
61 60 59 59 59 60 60 60 59 58 58 58 57 56 54 49 41 32 24 19 19 20 21 22 24 26 28 29 31 32 31 31 31 32 34 36 38 40 42 44 44 44 44 43 44 45 46 46 48 50 54 57 59 63 71 82 90 88 78 64 52 48 51 59 65 67 64 66 74 76 69 62 59 54 48 44 44 47 52 58 61 63 66 71 74
68 67 66 64 64 64 63 61 61 61 61 61 59 56 51 43 33 25 20 19 21 23 24 25 26 26 27 27 29 33 35 34 35 36 37 38 41 43 45 46 46 46 46 46 47 49 51 52 53 55 58 60 63 68 78 89 95 93 81 66 52 45 48 57 66 67 65 71 80 80 72 66 63 57 49 46 46 49 53 57 61 67 74 80 82
74 72 70 68 67 66 65 64 64 64 64 63 59 53 45 35 27 21 20 22 25 26 27 27 27 27 29 31 33 36 37 37 37 38 38 39 40 42 44 46 46 46 47 48 49 52 56 59 59 60 61 63 65 73 85 95 100 96 83 65 49 42 44 56 66 67 66 74 84 84 76 71 67 60 51 46 45 48 53 58 62 69 77 85 89
78 75 73 71 70 69 68 68 69 69 67 63 56 47 37 28 23 22 23 26 28 28 28 29 29 31 34 36 38 40 41 41 41 41 41 40 41 42 44 45 46 46 47 49 51 56 61 65 65 64 63 63 67 77 90 100 103 99 84 63 46 38 42 55 67 69 70 78 88 87 80 75 71 63 53 46 43 46 53 60 67 73 79 85 90
81 78 75 74 73 73 73 74 74 72 68 60 49 38 30 24 22 25 28 29 30 31 31 32 33 36 37 39 41 43 45 46 46 45 45 44 44 44 44 45 45 46 48 50 54 59 65 69 68 66 64 64 69 82 95 102 104 99 82 59 41 35 42 57 69 72 76 85 92 91 86 80 75 67 56 46 42 45 54 63 71 77 83 87 89
83 80 78 77 77 78 78 78 77 72 64 52 40 31 25 24 26 29 31 31 32 34 36 37 39 39 39 41 43 45 47 48 49 49 49 48 47 47 46 45 45 47 50 53 57 62 68 72 71 68 66 67 74 87 98 102 103 97 78 53 36 33 43 60 71 75 82 92 96 95 91 86 79 71 59 47 42 46 57 67 74 79 86 90 90
85 82 81 81 82 83 83 81 77 68 55 43 33 26 25 27 31 32 33 34 36 39 41 42 43 43 43 44 46 48 49 50 50 51 51 50 49 48 46 45 46 49 53 57 61 65 71 75 74 71 70 71 80 91 98 101 103 95 70 44 31 32 46 65 74 78 88 98 100 98 96 91 84 75 61 48 43 49 60 70 77 82 86 88 89
88 87 86 87 88 88 86 81 72 59 46 35 28 26 29 33 34 35 36 38 40 42 44 46 48 50 50 50 51 51 51 52 52 52 52 51 49 47 45 45 48 52 56 60 63 66 70 74 76 75 75 77 85 94 98 101 103 89 61 37 29 34 51 70 78 82 93 104 105 102 99 94 88 80 65 49 45 53 65 74 79 83 86 86 87
93 92 93 94 93 91 86 77 64 49 37 30 27 30 34 36 37 38 40 43 45 47 49 51 53 55 57 56 55 53 53 53 53 53 52 51 49 46 45 46 50 55 60 63 64 65 68 71 75 79 82 85 91 96 99 102 101 83 54 33 29 39 58 76 82 85 95 106 109 108 104 97 92 85 70 53 47 56 70 77 80 82 85 85 85
98 98 99 99 96 90 82 70 55 41 32 29 30 34 37 38 40 43 46 48 51 53 54 56 57 59 59 58 55 54 53 53 54 54 54 52 49 46 45 47 53 59 63 65 65 65 67 70 75 82 88 93 96 97 98 101 98 79 53 34 32 45 67 83 86 88 97 107 111 112 109 103 97 90 75 57 51 60 73 79 79 79 82 83 84
100 100 102 102 97 88 76 61 46 35 30 31 35 38 40 43 46 49 51 53 55 57 59 61 62 62 60 58 55 53 53 53 53 54 55 53 49 45 46 51 58 64 66 67 67 66 67 71 78 85 91 96 98 97 98 100 97 81 57 38 36 53 75 87 89 93 101 108 110 112 111 107 103 97 81 62 55 63 74 78 78 79 81 84 87
101 101 103 101 94 82 68 53 40 33 32 36 40 43 47 50 52 54 56 59 61 62 63 65 66 65 62 59 56 54 53 52 53 54 55 52 48 45 48 56 64 68 69 69 68 66 68 74 81 86 91 94 96 97 99 101 98 85 63 44 42 60 82 92 93 97 105 108 108 108 108 106 106 103 88 67 57 65 75 77 77 80 83 87 91
101 102 102 98 88 75 60 45 36 33 36 40 45 50 54 57 58 59 62 65 66 66 67 69 70 68 65 62 60 57 54 53 53 54 54 51 47 46 52 61 68 70 71 71 69 68 70 74 79 84 87 90 93 96 99 101 100 90 71 50 46 63 86 96 97 100 106 109 106 103 102 103 106 105 90 69 60 66 73 75 77 81 85 89 92
101 103 101 93 80 66 52 40 34 36 40 46 52 56 59 61 62 63 66 69 70 71 72 74 74 72 70 68 65 60 55 54 54 55 54 50 46 48 57 66 71 72 73 73 72 71 71 72 75 79 84 88 91 94 98 101 100 94 78 57 49 64 88 100 101 102 106 107 106 103 102 103 107 103 87 67 61 66 71 72 77 83 86 87 89
102 103 100 88 73 58 46 38 35 39 45 52 57 61 63 65 66 67 70 73 74 76 78 78 77 76 75 73 68 61 56 55 55 56 53 48 47 52 62 71 74 76 76 76 75 73 70 68 69 75 84 90 92 94 97 100 101 97 83 63 52 64 86 101 103 104 104 104 104 104 104 106 107 100 81 64 59 63 68 72 79 86 86 85 87
Wind_Speed
58 58 58 58 59 59 59 60 60 61 61 62 63 64 65 66 67 68 68 69 69 69 70 71 72 73 74 74 75 75 76 76 77 77 77 78 78 78 78 78 78 78 78 78 78 79 80 80 81 82 83 84 85 86 87 89 89 90 92 92 93 95 95 96 96 95 95 98 99 101 102 103 103 105 105 106 107 107 108 108 109 109 109 109 109
56 57 57 57 58 59 59 60 61 62 63 63 64 65 66 66 67 68 68 69 70 70 71 72 73 74 74 74 75 75 75 75 75 75 74 74 74 74 75 75 76 76 77 77 78 79 80 81 82 84 85 86 87 88 89 90 91 92 93 94 94 96 97 98 98 98 97 99 101 103 104 105 105 106 107 107 108 109 109 109 110 110 110 110 110
55 56 57 58 58 59 60 60 61 62 63 63 64 65 66 67 67 68 69 70 70 71 72 72 73 73 73 73 72 72 71 71 71 71 71 72 72 73 74 75 75 76 77 78 79 81 82 83 84 85 86 87 88 89 90 91 92 93 95 96 96 98 99 100 101 101 100 101 102 103 105 105 106 106 107 107 107 108 108 108 108 108 109 109 109
55 55 56 57 57 58 59 59 60 61 62 63 64 65 66 67 67 68 69 69 70 70 70 70 70 70 69 69 69 68 68 69 69 70 71 72 73 74 75 76 77 78 79 80 81 82 83 84 85 86 88 89 90 91 92 93 94 95 97 98 99 100 101 102 102 103 102 102 103 104 105 105 105 105 105 105 105 106 106 106 106 107 108 108 108
54 54 55 55 56 57 58 59 60 61 62 63 64 65 66 66 67 67 67 67 67 67 67 67 67 66 66 67 67 67 67 68 69 70 72 73 74 76 77 78 78 79 80 82 83 84 85 86 87 88 89 90 91 92 94 95 96 97 98 99 100 101 101 102 102 103 103 102 102 102 103 103 104 104 104 104 104 105 105 106 107 107 108 109 110
54 54 55 56 57 58 59 60 61 61 62 63 63 64 64 64 64 64 64 64 64 64 64 64 65 65 66 66 67 68 68 69 70 72 73 75 76 78 79 79 80 81 82 83 84 85 86 87 88 89 90 91 93 94 95 96 97 98 99 99 100 100 100 101 101 101 101 101 101 101 102 103 103 104 105 105 105 106 106 106 107 108 109 110 111
54 55 56 56 57 58 58 59 59 60 60 60 60 60 60 61 61 61 61 61 62 63 63 64 65 66 67 67 68 69 69 70 72 74 75 77 78 79 80 80 81 82 83 84 85 86 87 89 90 91 92 93 94 95 96 96 97 98 98 98 98 98 98 98 99 99 100 100 101 102 102 103 104 104 105 106 106 107 108 107 107 108 110 110 111
54 54 54 55 55 55 56 56 56 56 56 56 57 57 58 58 59 59 60 61 62 63 64 65 66 66 67 68 69 70 71 72 74 75 77 78 79 80 80 81 82 83 84 86 87 88 89 90 91 92 93 94 94 95 95 95 95 95 96 96 96 97 97 98 98 99 100 101 101 102 103 103 104 104 105 106 106 107 108 108 107 107 108 109 110
51 51 51 52 52 52 52 52 53 53 54 55 55 56 57 58 59 60 61 61 62 63 64 65 66 67 68 70 71 72 73 74 74 76 77 79 80 81 81 82 83 85 86 88 89 90 90 91 92 92 92 93 93 93 93 93 93 94 94 95 96 96 97 97 98 99 100 100 101 102 102 103 103 103 104 104 104 104 105 105 104 104 104 103 105
48 49 49 50 50 50 51 51 52 52 53 54 55 56 57 58 59 60 61 62 63 64 65 66 67 68 70 71 72 73 74 74 75 76 77 80 81 82 82 83 85 86 88 89 90 90 90 90 90 90 90 90 91 91 92 92 93 93 94 95 95 96 96 96 97 98 99 99 99 100 100 100 101 101 100 100 99 99 99 99 98 98 97 96 97
48 48 48 49 49 50 50 51 52 53 54 55 56 57 58 58 59 60 61 62 63 64 65 67 68 70 71 72 73 74 75 75 76 76 78 81 83 83 84 85 86 87 88 88 89 89 89 89 89 89 89 89 90 91 91 91 92 93 93 94 94 95 95 95 96 96 96 96 96 97 96 95 95 95 94 93 92 91 91 91 90 89 89 89 88
47 48 48 48 49 50 51 51 52 53 54 55 56 57 58 59 60 61 61 62 64 65 66 68 69 70 71 72 73 75 76 77 78 78 79 82 84 85 84 85 85 86 86 86 87 87 88 88 88 88 88 89 89 90 90 90 91 91 92 93 93 93 94 94 94 93 93 92 91 90 90 88 86 86 85 84 83 82 81 81 81 81 81 82 82
47 47 48 49 49 50 51 52 52 53 54 55 56 57 58 59 60 61 62 63 65 66 67 68 69 70 72 73 74 76 77 79 80 80 80 82 84 84 84 84 84 84 85 85 86 87 87 87 87 87 87 88 88 88 88 89 89 90 90 91 91 91 91 91 90 89 87 86 83 82 81 79 78 77 76 76 75 74 74 74 74 75 75 76 77
47 47 48 49 50 50 51 51 52 53 54 55 56 57 58 60 61 62 63 64 65 66 67 68 70 71 73 75 76 78 79 80 80 81 81 81 82 82 82 83 83 84 84 85 85 86 86 86 86 86 86 86 86 87 87 87 87 88 88 88 87 87 86 84 83 82 80 78 76 74 73 72 70 69 69 70 69 69 69 69 69 70 70 71 72
46 47 47 48 49 50 50 51 52 53 54 55 56 57 59 60 61 62 63 64 65 66 68 70 71 73 75 76 77 78 78 79 79 80 80 81 82 82 82 82 83 83 83 84 84 84 84 85 84 84 84 84 84 85 85 85 85 84 84 83 81 80 78 76 74 72 70 69 67 66 66 66 65 65 65 65 65 65 66 66 67 67 67 68 69
46 46 47 48 49 50 51 52 53 54 54 55 56 57 58 60 61 62 63 65 66 68 70 71 72 74 75 75 76 77 77 78 79 79 80 81 82 82 81 82 82 82 82 82 82 82 82 83 83 83 83 82 83 82 82 81 80 79 77 75 72 71 69 67 65 64 63 62 62 62 62 62 63 63 64 65 65 65 65 66 67 68 67 67 67
46 46 47 48 49 50 51 52 53 54 55 56 57 58 59 60 62 64 65 67 68 69 70 71 72 73 74 74 75 76 76 77 78 78 79 80 80 80 80 80 80 80 80 80 80 80 80 81 81 81 81 80 80 79 77 75 73 71 68 66 64 63 62 60 60 59 59 59 59 60 61 61 63 64 65 65 66 66 66 67 68 69 69 68 67
46 47 47 49 49 50 51 52 53 54 55 56 57 59 60 62 63 65 66 67 68 69 69 70 71 72 72 73 74 74 75 75 76 76 77 78 79 79 78 78 78 78 78 78 78 78 78 79 79 78 78 77 75 73 71 68 65 63 61 59 58 57 56 56 56 57 57 58 59 60 60 61 62 63 64 65 66 67 67 68 69 69 69 68 66
46 47 48 49 49 50 51 52 53 54 55 57 58 60 61 63 64 65 66 67 67 68 68 69 69 69 70 71 72 73 74 74 75 75 76 76 77 77 77 77 77 76 76 76 76 76 76 76 75 74 73 71 69 66 64 61 59 57 55 53 53 53 53 53 54 55 56 57 58 59 60 60 61 61 62 63 64 65 67 68 69 69 67 66 65
46 47 48 48 49 50 51 52 53 55 56 58 60 61 62 63 63 64 65 65 65 65 65 66 66 67 69 70 72 73 74 74 75 75 75 75 76 76 76 75 75 75 75 75 74 74 73 71 70 68 66 64 62 60 58 56 54 53 51 50 50 51 51 52 53 54 55 56 57 57 58 58 59 60 60 61 63 65 66 68 69 68 66 64 62
46 47 47 48 49 50 52 53 55 56 58 59 60 60 61 62 63 63 62 62 62 62 63 64 66 68 69 71 72 73 74 74 74 74 73 73 73 74 74 74 74 73 73 72 71 69 68 66 64 62 60 58 56 55 54 52 51 51 50 50 50 50 51 52 53 53 54 55 56 56 56 57 58 59 60 61 62 64 66 67 68 67 65 62 60
45 46 47 49 50 51 53 54 56 57 58 58 59 60 60 60 60 59 59 60 61 62 64 65 67 69 70 72 72 73 73 73 73 73 72 72 72 72 72 71 71 70 69 67 65 63 62 60 58 57 55 54 53 52 51 50 50 50 50 50 50 51 51 52 52 53 54 55 55 55 56 56 57 58 59 60 62 63 64 66 66 64 62 61 60
45 47 48 50 51 53 54 55 55 56 57 58 58 58 57 56 56 57 58 60 62 63 65 67 68 70 71 72 72 72 72 72 71 71 71 71 70 69 69 68 67 65 64 62 60 58 56 55 54 53 52 51 50 49 49 49 49 50 50 50 51 51 52 52 53 53 54 54 54 54 55 55 56 57 58 59 60 62 63 63 62 61 59 58 58
46 48 49 51 52 53 54 54 55 56 56 55 54 54 54 55 56 58 60 61 63 65 67 68 69 70 70 70 70 70 70 70 70 69 69 68 67 66 65 63 61 60 58 56 55 53 52 51 51 50 49 49 49 49 48 49 49 49 50 50 51 51 52 53 53 53 53 53 53 53 54 55 55 56 56 58 59 60 60 60 59 58 56 56 56
48 49 50 52 52 53 54 54 54 53 52 52 52 53 54 56 58 60 61 63 65 66 67 68 69 69 69 69 68 68 68 68 67 67 66 65 63 61 60 58 56 54 53 52 51 50 49 49 48 48 48 48 48 48 49 49 49 49 50 51 51 51 52 52 53 52 52 52 52 52 53 54 54 54 55 56 57 58 58 57 56 55 54 54 54
49 50 51 51 52 53 53 52 51 50 51 52 53 54 56 58 60 61 63 64 66 67 67 68 68 68 67 67 67 67 66 66 65 63 62 60 58 56 54 52 51 50 49 49 48 48 47 47 47 48 48 48 48 49 49 50 50 50 51 51 51 51 51 51 51 51 50 50 50 51 52 52 53 53 54 55 56 56 56 54 53 52 52 51 51
49 50 51 51 51 51 50 49 49 50 51 53 54 56 58 59 61 63 64 65 66 66 67 67 66 66 65 65 65 64 63 62 60 58 57 55 53 51 50 49 48 47 47 47 47 47 47 47 47 47 48 48 49 49 50 51 51 52 52 52 51 51 51 51 50 49 49 49 49 49 50 51 51 52 53 54 55 55 54 52 50 49 49 48 48
49 50 50 50 49 48 48 48 50 51 53 54 56 57 59 60 62 63 64 65 65 65 65 65 64 64 64 63 62 61 59 58 56 54 52 50 49 48 47 46 46 46 46 46 47 47 47 47 47 48 49 50 50 50 51 51 52 52 52 52 51 51 50 49 49 49 48 48 48 48 49 50 50 51 52 53 53 53 53 51 49 48 47 47 46
49 49 48 47 47 47 48 49 51 52 54 56 57 59 60 61 62 63 64 64 64 64 63 63 63 62 61 60 59 57 55 53 51 50 48 47 46 46 45 45 44 45 45 46 46 47 47 48 48 49 50 51 51 51 52 52 52 51 51 51 50 50 49 48 48 48 48 47 47 47 47 48 49 50 51 52 52 52 51 49 48 47 46 46 45
48 47 46 46 47 48 49 50 52 53 55 57 58 59 61 61 62 63 63 63 62 62 61 61 60 59 58 56 54 52 51 49 47 46 45 44 44 44 44 43 43 44 44 45 46 47 47 48 49 49 50 51 51 51 51 51 51 51 50 50 49 48 47 47 46 46 46 46 46 46 46 46 47 48 49 50 50 50 49 48 46 45 44 44 44
46 46 46 47 48 49 50 52 53 54 56 57 59 60 61 61 62 62 61 61 60 60 59 58 57 56 53 51 49 48 47 45 44 44 43 43 43 43 43 43 42 43 44 44 45 46 47 48 48 49 49 50 50 50 50 50 50 50 49 49 48 47 46 46 45 45 45 45 45 45 44 44 45 47 47 48 48 48 48 47 45 44 43 42 41
46 46 47 48 49 50 52 53 54 55 57 58 59 59 60 60 60 60 60 59 58 58 57 56 54 51 49 47 46 45 43 43 43 43 43 43 42 42 42 42 42 42 42 43 44 45 46 47 47 48 49 49 50 50 49 49 49 48 47 47 47 46 45 44 44 44 44 43 43 43 43 43 44 46 46 46 47 47 46 45 44 42 41 40 39
46 47 48 49 50 51 52 53 55 56 57 57 58 59 59 59 59 58 58 57 56 55 54 52 49 47 45 44 43 42 42 42 42 42 42 42 42 41 41 41 41 41 42 43 44 45 46 47 47 48 49 49 49 49 49 48 48 47 46 45 45 45 44 43 43 43 42 42 41 41 41 41 43 44 45 45 45 45 44 43 41 39 38 37 37
47 48 49 50 51 52 53 54 55 56 56 57 57 57 57 57 56 56 56 55 54 52 50 48 46 44 42 42 41 41 41 41 40 40 40 40 40 41 42 42 42 42 42 43 44 46 47 47 48 48 49 49 49 49 48 48 47 46 45 44 43 43 42 42 42 42 41 40 40 40 40 40 41 43 43 44 44 44 43 41 39 37 36 36 36
48 49 49 50 51 52 53 54 55 55 56 56 56 56 55 55 55 54 54 52 50 48 45 44 42 41 41 40 40 40 39 38 38 37 38 39 40 41 42 43 44 44 44 44 45 46 47 48 48 49 49 49 49 48 47 47 46 45 44 43 42 41 41 41 40 40 40 39 39 38 38 39 40 41 42 42 42 42 41 39 36 35 34 34 34
48 49 50 50 51 52 53 54 54 55 55 54 54 54 53 53 53 53 51 49 47 44 42 40 39 39 38 38 38 37 37 36 36 37 38 39 40 41 42 44 44 45 45 45 45 46 47 48 49 49 49 49 48 47 46 46 44 43 42 41 40 40 39 39 39 39 39 38 37 37 37 38 39 40 40 40 40 40 38 36 35 34 34 34 34
48 49 50 50 51 52 52 53 53 53 53 53 52 52 52 52 51 50 48 46 43 41 40 39 39 37 36 35 35 35 36 36 37 37 38 39 40 41 42 44 45 46 47 47 47 48 48 49 49 49 49 48 47 46 45 44 43 42 40 39 39 38 38 37 37 37 37 36 36 35 36 36 37 38 38 39 39 38 36 34 33 33 33 34 34
48 49 49 50 51 51 52 52 52 52 52 51 51 50 50 50 49 47 45 42 40 39 39 38 37 35 34 33 33 34 35 36 37 38 39 40 41 42 43 44 45 46 47 48 48 49 49 50 50 49 48 47 45 44 43 42 41 40 39 38 38 37 36 35 35 35 35 34 34 34 35 35 36 36 37 37 37 36 34 32 32 32 33 33 34
48 49 49 50 50 51 51 51 51 50 50 49 49 49 49 48 46 44 41 40 39 38 37 36 34 33 33 33 34 35 36 37 38 39 40 40 41 42 43 44 45 46 47 48 49 49 50 50 49 48 46 45 43 42 42 41 39 38 37 37 36 36 35 34 33 33 33 33 32 33 33 34 35 35 35 35 35 33 32 31 31 31 31 31 32
48 49 49 50 50 50 50 49 49 48 48 48 48 47 46 45 43 40 39 38 37 36 35 33 33 32 33 33 34 35 36 38 38 39 41 42 42 43 44 45 46 47 48 49 49 49 49 49 48 47 45 43 42 41 40 39 38 37 36 36 35 35 34 32 32 32 32 31 31 32 33 33 34 34 34 34 33 31 30 30 30 30 30 30 30
48 49 49 49 49 49 48 48 47 47 46 46 46 45 43 41 39 38 37 36 35 34 33 32 32 32 33 34 34 35 36 38 39 40 41 43 44 44 45 46 46 47 48 49 49 49 48 47 46 45 43 41 40 39 38 37 36 35 35 35 35 34 33 31 30 30 30 30 30 30 32 32 33 33 33 33 32 30 30 30 30 29 29 29 29
48 48 48 48 48 47 47 46 46 45 45 44 43 42 40 38 37 36 35 34 33 32 32 32 33 33 33 34 34 35 37 38 39 41 42 43 44 45 46 46 47 48 49 49 48 47 46 45 44 43 41 40 39 38 37 36 34 34 34 34 34 33 31 30 29 29 29 29 29 29 31 32 32 32 31 31 30 30 30 30 29 28 28 28 29
47 47 47 47 46 46 45 45 44 44 43 42 41 39 37 36 35 34 33 32 32 32 32 33 33 34 34 34 35 36 37 38 40 41 42 43 44 45 46 47 48 48 49 49 48 46 45 43 42 41 40 39 37 36 35 34 33 33 33 34 34 32 30 29 29 28 28 28 28 29 30 31 31 31 30 30 29 29 30 30 29 28 27 27 28
47 46 46 45 45 44 44 43 43 43 42 40 38 36 35 34 33 32 32 31 31 32 32 32 33 34 35 35 36 37 38 39 40 42 43 44 45 45 46 47 48 48 48 48 46 44 43 41 40 39 38 37 36 35 34 33 32 31 32 33 33 32 30 28 28 28 27 27 28 28 29 30 30 30 30 29 28 29 30 29 28 27 26 27 27
46 45 45 44 43 43 42 42 42 41 39 38 36 34 33 32 32 31 31 31 32 32 32 33 33 34 35 36 37 38 39 40 41 43 44 44 45 46 47 47 47 48 47 46 44 42 41 40 39 38 37 36 35 34 33 32 30 30 31 31 31 30 29 28 28 27 26 27 27 28 29 30 30 29 29 28 28 28 29 29 27 26 25 26 27
45 44 43 42 42 41 41 41 40 39 37 36 34 33 32 32 31 31 31 31 31 32 33 33 33 34 35 36 37 38 40 41 42 44 45 45 46 46 47 47 47 47 46 44 42 41 39 38 37 36 35 35 34 33 32 30 29 29 30 30 29 29 28 27 27 27 26 26 26 27 28 29 30 29 28 27 27 27 28 28 26 25 25 26 26
43 42 41 41 40 40 40 39 38 37 35 34 33 32 32 31 31 31 31 31 32 32 33 33 34 35 36 37 38 39 41 42 43 45 45 46 46 46 46 46 46 45 44 42 40 39 37 36 35 34 34 34 33 32 31 30 29 29 29 29 28 27 27 26 26 26 26 26 26 26 27 29 29 29 28 26 26 27 27 26 25 25 25 26 27
42 41 40 39 39 39 38 37 36 35 34 33 32 32 31 31 31 31 31 32 33 33 33 34 35 36 37 38 39 40 42 43 44 45 46 46 46 46 46 46 45 43 42 40 39 37 36 35 34 34 33 32 32 31 30 29 28 28 28 28 27 26 26 26 25 25 25 25 25 26 26 28 28 28 27 26 25 26 26 25 24 24 25 26 27
40 39 39 38 38 37 37 36 35 33 32 32 32 31 31 31 31 31 32 33 33 34 34 35 36 37 38 39 40 42 43 44 45 46 46 46 46 46 46 45 43 42 40 39 37 36 34 34 33 33 32 31 30 29 28 28 27 27 27 27 26 25 25 25 25 24 24 24 25 25 26 27 27 27 26 25 24 24 24 23 23 23 24 25 26
38 38 37 37 37 36 35 34 33 32 32 31 31 31 31 31 32 32 33 34 34 35 35 36 37 38 39 40 42 43 44 45 46 46 47 47 46 46 45 44 42 40 38 37 35 34 33 33 32 32 31 31 29 28 27 27 26 26 27 27 26 25 25 25 25 24 23 23 24 25 25 26 27 26 24 23 23 23 23 22 22 23 24 24 25
37 37 36 36 35 35 34 33 32 31 31 31 31 31 32 32 33 33 34 34 35 36 36 37 38 39 40 42 43 44 45 45 46 47 47 47 46 45 44 43 41 39 37 35 34 33 32 32 32 31 30 30 29 27 26 26 25 26 26 26 25 24 24 24 24 24 23 22 23 24 25 25 26 25 23 22 21 21 21 21 22 23 23 24 24
Wind_Direction
261 262 263 263 264 264 265 265 265 265 266 266 267 268 268 269 269 269 270 270 270 271 272 273 274 275 275 276 277 277 277 278 278 279 279 279 279 279 280 280 280 280 280 281 281 281 282 282 282 282 282 282 283 283 283 283 283 283 283 283 283 283 283 283 283 282 282 282 281 281 281 280 280 280 280 279 279 279 279 279 278 278 278 277 277
260 261 261 262 262 262 263 263 263 263 264 264 265 266 267 267 268 268 269 270 271 272 273 274 275 275 276 276 277 278 278 279 279 279 280 280 280 280 280 280 281 281 281 282 282 282 282 282 282 282 283 283 283 283 284 284 284 284 284 284 284 284 284 284 284 284 283 283 282 282 282 282 281 281 281 280 280 280 279 279 279 279 278 278 277
258 259 260 261 261 262 262 262 263 263 264 264 265 265 266 267 268 269 270 271 272 273 274 274 275 276 276 277 277 278 279 279 279 280 280 280 280 280 281 281 281 282 282 282 282 282 282 283 283 283 284 284 284 284 284 284 285 285 285 285 285 285 285 285 284 284 284 283 283 283 282 282 282 281 281 281 280 280 280 279 279 279 278 278 277
260 260 261 261 262 262 262 263 263 263 264 264 265 266 267 268 269 270 271 272 273 274 275 275 276 277 277 278 278 279 279 280 280 280 281 281 281 281 281 281 282 282 283 283 283 283 283 284 284 284 284 285 285 285 285 285 285 285 285 285 285 285 285 285 285 285 284 284 284 283 283 282 282 282 281 281 281 280 280 279 279 279 278 278 277
261 261 261 261 261 261 261 262 263 263 264 265 266 267 269 270 271 272 273 274 275 275 276 277 277 278 278 279 279 279 280 280 280 281 281 281 281 281 282 282 283 283 283 284 284 284 284 284 285 285 285 285 285 286 286 286 286 286 286 286 286 286 286 286 286 285 285 285 284 283 283 283 282 282 282 281 281 281 281 280 280 280 279 279 278
259 259 260 260 260 261 262 262 264 265 266 267 269 270 271 272 273 273 274 275 276 277 277 278 278 279 279 279 279 280 280 280 281 281 281 282 282 282 283 283 284 284 284 284 284 285 285 285 285 285 286 286 286 286 286 286 286 286 286 286 286 286 286 286 286 286 286 285 285 284 284 284 283 283 283 283 282 282 282 281 282 281 281 280 280
258 259 260 261 262 263 264 265 266 267 268 269 270 271 272 273 273 274 275 276 276 277 278 278 278 279 279 279 280 280 280 281 281 282 282 282 283 283 284 284 285 285 285 285 285 285 285 286 286 286 286 286 287 287 287 287 287 287 287 287 287 286 286 286 287 287 286 286 286 286 285 285 285 285 285 284 284 284 283 282 282 282 282 281 281
261 262 263 264 265 265 266 267 268 269 270 270 271 272 273 274 274 275 276 276 277 277 278 278 279 279 279 280 280 280 281 281 282 283 283 283 284 284 285 285 285 285 285 285 286 286 286 286 287 287 287 287 287 287 287 287 287 287 287 287 287 288 288 288 288 288 288 287 287 287 287 287 286 286 286 286 285 285 284 284 283 282 282 281 281
264 264 265 265 266 266 267 268 269 270 271 272 273 274 274 275 276 276 276 277 277 278 278 278 279 279 280 280 281 281 282 282 283 284 284 284 284 285 285 286 286 286 286 287 287 287 287 288 288 288 288 288 288 288 288 288 288 289 289 289 289 289 289 289 289 289 288 288 288 288 288 288 287 287 287 286 286 285 285 285 284 283 282 281 281
265 265 265 266 267 268 269 270 271 272 273 273 274 274 275 276 276 276 277 277 277 278 279 279 280 281 281 282 282 283 283 284 284 284 285 285 285 286 286 287 287 288 288 288 288 289 289 289 289 289 289 289 289 289 290 290 290 290 290 290 290 290 290 290 289 289 289 289 289 289 288 288 288 288 287 287 286 286 285 285 284 284 283 282 281
266 266 267 268 269 270 271 271 272 272 273 274 274 275 275 276 276 277 277 278 279 280 280 281 282 282 283 283 284 284 284 285 285 285 286 287 287 287 288 288 289 289 289 289 289 289 289 289 290 290 290 290 291 291 291 291 291 291 291 291 291 290 290 290 290 290 290 290 290 289 289 289 289 288 288 287 287 287 287 286 286 285 284 284 283
267 268 269 269 270 271 271 272 272 273 274 275 275 276 276 277 278 278 279 280 281 281 282 282 283 283 284 284 285 285 286 286 286 287 287 288 289 289 289 290 290 290 290 290 290 290 290 291 291 291 291 291 292 292 292 292 292 292 292 292 292 291 291 291 291 290 290 290 290 290 290 290 289 289 289 289 288 288 288 288 288 288 287 286 286
268 268 269 270 271 271 272 273 274 275 276 276 277 277 278 279 279 280 281 281 282 282 283 284 284 285 285 286 287 287 288 288 288 289 289 289 289 290 290 290 290 290 291 291 291 292 292 292 292 292 292 292 292 292 293 293 293 293 293 293 293 292 292 292 292 291 291 291 291 291 291 291 291 291 291 290 291 291 291 291 291 291 291 291 290
268 269 270 271 272 273 274 275 276 276 277 277 278 279 279 280 281 281 282 283 283 284 285 285 286 287 287 288 288 289 289 290 290 290 290 290 290 290 291 291 291 292 292 292 292 292 293 293 293 293 293 293 293 293 294 293 293 293 293 293 293 293 293 293 293 293 293 292 292 292 292 293 293 293 294 294 295 295 296 296 295 295 295 294 293
270 271 272 273 274 275 275 276 277 277 278 279 279 280 281 282 282 283 284 284 285 286 287 287 288 288 289 289 290 290 290 290 291 291 291 291 291 291 291 292 292 292 293 293 293 293 293 293 294 294 294 294 294 294 294 294 294 294 294 294 294 294 294 294 294 294 294 294 295 295 295 296 296 297 297 297 298 298 299 299 298 297 297 296 296
272 273 274 274 275 276 277 278 278 279 280 281 281 282 283 283 284 285 286 286 287 288 288 289 289 289 290 290 290 291 291 291 292 292 292 292 292 292 293 293 293 293 293 293 293 294 294 294 294 294 294 294 294 294 294 294 294 294 295 295 295 295 295 295 295 295 295 296 297 297 298 298 298 298 298 298 299 299 300 301 302 302 301 300 300
273 274 275 276 277 277 278 279 280 281 282 282 283 284 284 285 286 287 287 288 288 289 289 290 290 290 291 291 292 292 292 293 293 293 294 293 293 293 293 293 293 294 294 294 294 294 294 294 294 294 294 294 295 295 295 295 295 295 295 295 295 295 295 296 296 297 298 298 299 299 300 300 301 301 302 303 304 305 306 306 307 307 306 305 303
274 276 276 277 278 279 280 281 281 282 283 283 284 285 286 286 287 288 288 289 289 290 290 291 291 292 292 293 293 294 294 294 295 295 294 294 294 294 294 294 294 295 295 295 295 294 295 295 295 295 295 295 295 295 295 295 295 295 295 295 295 296 296 297 299 299 300 300 301 302 302 303 304 304 305 307 308 309 310 311 310 310 309 308 306
277 278 278 279 280 281 281 282 282 283 284 285 285 286 287 288 288 289 290 290 291 291 292 292 293 294 295 295 295 296 296 295 295 295 295 295 295 295 295 295 295 295 295 295 295 295 295 295 295 296 296 296 296 296 296 296 295 295 295 296 296 296 297 298 299 300 301 302 303 304 305 306 306 306 307 308 309 311 312 312 312 312 311 309 308
278 279 279 280 281 281 282 283 283 284 285 286 287 288 288 289 289 290 291 291 292 293 294 295 296 296 297 297 297 296 296 296 296 296 296 296 296 296 296 296 296 295 295 295 295 296 296 296 296 296 296 296 296 296 296 296 295 295 295 295 296 296 297 298 299 300 301 303 304 305 305 305 305 305 306 308 310 312 313 314 314 313 312 311 309
278 279 279 280 281 282 283 284 285 286 287 287 288 289 289 290 290 291 292 293 294 295 296 297 297 297 298 297 297 297 297 296 296 296 296 296 296 296 296 296 296 296 296 296 296 296 296 296 296 296 296 296 297 297 297 297 297 296 296 296 296 297 298 299 300 301 302 303 304 304 304 304 305 306 308 310 312 314 316 316 316 315 314 312 310
278 279 280 281 282 283 285 286 286 287 288 288 289 289 290 291 292 293 294 295 296 297 297 298 298 298 298 298 297 297 297 297 297 296 296 296 296 296 296 297 297 297 297 297 297 297 297 297 297 297 297 297 297 298 298 298 298 297 297 297 298 298 299 300 300 301 302 303 304 304 304 305 307 308 310 312 314 316 317 317 317 316 315 314 312
279 281 282 283 284 285 286 287 287 288 288 289 289 290 291 292 293 294 295 296 297 297 298 298 298 298 298 298 298 297 297 297 297 297 297 297 297 297 297 297 297 298 298 298 298 298 298 298 298 298 298 298 298 298 298 298 298 298 298 299 299 300 300 301 301 303 304 304 305 305 306 307 308 310 312 314 316 318 319 318 317 316 315 314 313
282 283 284 285 286 287 287 288 288 288 289 289 290 291 292 293 294 295 296 297 297 298 298 298 298 299 298 298 298 298 298 298 297 297 297 297 297 297 297 298 298 298 298 299 299 299 299 298 298 298 298 298 298 298 298 298 298 299 299 300 300 301 301 302 303 304 305 305 306 306 307 308 310 312 314 315 317 319 319 319 317 316 316 315 315
284 285 286 286 287 287 288 288 288 289 290 290 292 293 294 295 296 296 297 297 298 298 299 299 299 299 299 298 298 298 298 298 297 297 297 297 298 298 298 298 298 298 298 298 298 298 298 298 298 298 298 298 298 298 298 298 298 299 299 300 301 302 303 304 305 305 305 306 307 307 308 310 311 313 315 316 318 319 320 319 317 317 317 317 316
285 286 286 286 287 287 288 288 289 290 291 292 293 294 295 296 297 297 298 298 299 299 299 300 299 299 299 298 298 298 298 297 297 297 297 298 298 298 298 298 298 298 298 298 298 298 298 298 298 298 298 297 298 298 298 298 299 299 300 301 302 303 303 304 304 305 306 307 307 308 309 311 312 314 315 317 318 320 321 319 318 317 318 318 317
285 286 286 287 287 288 288 289 290 291 292 293 294 295 296 297 297 298 298 299 299 300 300 300 300 299 299 299 298 298 298 298 298 298 298 298 298 298 298 298 298 298 297 297 297 297 297 297 297 297 297 297 297 298 298 299 300 301 301 301 302 302 303 303 304 305 306 307 308 309 310 311 312 314 316 317 319 321 321 320 318 318 317 317 317
286 287 287 287 287 288 289 290 291 292 294 295 295 296 297 297 298 299 299 300 300 300 300 300 300 300 299 299 299 298 298 298 299 299 299 299 298 298 298 298 298 298 297 297 297 297 297 297 297 298 298 298 299 299 299 300 300 300 301 301 301 302 302 303 304 305 305 306 307 308 310 311 313 315 317 318 320 321 321 320 319 319 319 318 318
287 287 287 287 288 289 290 291 293 294 294 295 296 297 298 298 299 300 300 301 301 301 301 300 300 300 299 299 299 299 299 299 299 299 299 299 298 298 298 298 298 298 298 299 299 299 300 300 301 301 301 301 301 301 301 301 301 301 301 301 301 302 303 303 304 305 306 307 308 309 310 312 313 316 318 320 321 322 322 321 320 320 319 319 319
287 287 287 288 289 290 291 292 293 294 295 296 297 298 299 299 300 301 301 301 301 301 301 300 300 300 299 299 299 299 299 299 299 299 299 299 299 299 299 299 300 300 300 301 302 302 303 303 303 303 303 303 303 302 302 302 302 302 302 302 302 303 303 304 304 305 306 307 308 309 311 312 314 316 319 320 321 322 322 321 320 320 319 319 320
286 287 288 289 290 291 292 293 294 295 296 297 298 299 300 300 301 301 302 301 301 301 300 300 300 299 299 299 299 299 299 299 299 299 299 299 299 300 300 301 301 302 303 303 304 304 304 304 304 304 304 304 304 303 303 303 303 302 302 302 303 303 303 303 304 305 306 307 308 310 311 312 314 317 319 321 322 322 322 321 321 320 320 320 320
286 287 288 289 290 292 293 294 295 296 297 298 299 300 300 301 302 302 302 302 301 301 301 300 300 299 299 299 298 298 298 299 299 300 300 300 301 301 302 302 303 304 304 304 305 305 305 305 305 305 305 305 305 304 303 303 302 302 302 302 302 302 302 303 304 305 306 307 308 310 311 313 315 317 320 321 322 322 322 321 321 320 320 321 321
287 288 289 290 291 293 294 295 296 297 298 299 300 301 301 302 302 302 302 302 301 301 301 300 300 299 299 299 298 299 299 300 301 301 302 302 303 303 304 304 305 305 305 305 305 305 306 306 306 306 306 306 305 305 304 303 302 302 301 301 301 301 301 302 303 304 305 307 308 309 310 313 315 317 319 321 322 322 322 321 321 321 321 323 325
287 289 290 291 293 294 295 296 297 298 299 300 301 302 302 302 303 302 302 302 301 301 301 300 300 299 299 299 299 300 301 301 302 303 304 304 304 305 305 305 305 306 306 306 306 306 307 307 307 307 307 306 306 305 304 303 302 301 300 300 300 300 300 301 302 303 305 306 307 308 310 313 315 317 319 322 323 322 321 321 321 322 323 325 328
289 290 291 292 294 295 296 297 298 299 300 301 302 302 303 303 302 302 302 302 301 300 300 300 300 301 301 301 301 301 302 302 303 304 305 305 305 305 306 306 306 307 307 307 308 307 307 308 308 308 307 307 306 305 304 302 301 300 299 299 300 299 299 300 301 302 304 306 307 308 310 312 315 317 320 322 323 322 321 321 322 323 325 327 329
290 291 292 293 294 295 296 297 299 300 301 301 302 302 302 302 302 302 301 301 300 299 298 298 299 300 300 300 301 301 302 303 304 304 305 305 305 306 306 307 307 308 308 308 309 308 308 308 308 308 308 307 306 304 303 301 300 299 299 299 300 300 300 300 300 302 303 305 307 308 310 312 315 317 320 321 322 321 321 321 322 324 326 328 329
291 292 293 294 295 296 297 298 299 300 301 302 302 302 302 301 301 301 300 299 298 298 297 297 298 298 298 298 299 301 302 303 304 305 305 306 306 307 307 307 308 308 309 309 310 310 309 309 309 309 308 307 305 304 302 300 299 299 299 300 300 300 300 299 300 301 303 305 306 307 309 312 315 317 320 321 321 321 320 321 323 326 328 330 330
291 292 293 294 295 296 298 299 300 300 301 301 301 301 301 300 300 299 298 297 297 296 297 297 298 298 298 298 298 300 301 303 304 305 305 306 307 307 308 308 309 309 310 310 311 311 310 310 310 309 308 307 305 303 302 301 300 300 300 301 301 301 300 299 299 300 302 304 305 306 309 311 314 317 319 320 320 320 319 321 323 327 330 331 331
292 293 294 295 296 297 298 299 300 300 301 301 300 300 300 300 299 298 297 296 296 296 296 297 297 297 298 299 300 301 302 304 305 306 307 308 308 309 309 309 310 310 310 310 311 311 310 310 310 309 308 307 305 304 302 301 301 300 301 301 302 302 301 300 299 300 302 303 304 306 308 311 314 317 319 319 319 318 318 320 323 327 330 331 331
292 293 294 295 297 298 298 299 300 300 300 299 299 299 299 299 297 296 295 295 295 295 295 296 296 297 298 300 302 303 305 306 307 308 309 310 310 310 310 311 311 311 311 311 311 311 310 310 310 310 309 308 306 304 303 302 301 301 301 302 303 303 302 301 300 300 302 303 304 305 308 310 313 316 317 318 317 317 317 320 323 326 329 331 332
293 294 295 296 297 298 298 299 299 299 298 298 299 299 298 297 296 294 294 294 294 294 294 295 296 297 299 301 303 305 306 308 309 310 311 311 312 312 312 312 312 312 312 312 312 312 311 310 310 310 309 308 306 305 303 302 301 301 302 303 304 304 303 301 300 300 301 302 303 305 307 310 312 314 316 316 316 315 317 319 323 326 328 330 331
293 294 295 296 297 298 298 298 298 298 298 298 298 298 296 295 293 292 292 293 293 293 294 295 296 298 300 302 304 306 307 309 310 311 312 312 313 313 313 313 313 313 313 313 313 312 311 310 310 310 309 308 306 305 304 303 302 303 304 305 306 305 303 301 300 300 301 301 303 305 307 309 311 313 314 314 313 314 316 319 323 326 328 330 331
293 294 295 296 297 297 297 297 297 297 297 297 297 296 294 293 292 291 291 291 291 292 293 295 297 299 301 303 305 307 308 310 311 312 312 313 313 313 314 314 314 314 313 313 313 313 312 311 311 310 309 308 307 306 304 303 303 304 306 307 307 305 303 301 301 300 301 301 302 305 306 308 310 311 312 312 312 313 316 319 322 325 328 329 330
293 294 295 296 296 296 296 296 296 296 296 296 296 294 292 291 290 289 289 289 290 291 294 296 299 301 303 305 306 308 309 311 311 312 313 314 314 314 314 314 314 314 314 314 313 312 312 311 311 310 309 308 307 306 305 304 304 305 307 308 307 305 303 301 300 300 301 301 302 304 306 307 309 310 310 311 310 312 316 319 322 325 327 328 330
293 294 294 295 295 295 295 295 295 295 296 295 294 292 290 288 288 288 288 289 291 293 295 297 299 301 303 305 307 309 310 311 312 313 314 315 315 315 315 315 315 315 314 314 313 312 312 311 310 310 309 308 308 307 306 304 304 306 308 309 307 304 302 301 300 300 300 301 302 304 306 307 308 309 309 309 309 312 316 319 322 325 326 327 329
292 293 294 294 294 294 294 294 295 295 294 293 291 289 288 287 288 288 289 290 292 294 296 297 299 301 304 306 308 310 311 312 313 314 315 316 316 316 316 316 315 315 314 313 313 312 312 311 310 310 309 309 308 307 306 304 305 307 310 310 307 303 301 300 300 300 300 301 302 304 305 307 308 308 308 308 308 311 315 319 322 325 326 327 329
292 292 293 293 293 293 293 294 294 293 292 291 289 288 287 287 287 288 289 290 292 294 296 298 300 302 304 306 308 310 312 313 314 315 316 316 317 317 316 316 315 315 314 313 312 312 311 310 310 310 309 309 309 308 306 305 305 308 310 311 308 303 301 300 299 299 300 301 302 304 306 307 307 308 308 308 308 311 316 320 322 325 327 328 330
291 291 291 292 292 292 292 293 292 291 290 289 287 287 287 287 287 288 289 291 292 294 296 298 300 302 304 307 309 311 312 314 315 315 316 317 317 317 317 316 315 315 314 313 312 311 311 310 310 310 310 310 309 307 305 304 304 307 310 312 309 304 301 300 300 300 300 301 302 305 306 307 307 307 308 308 309 312 316 320 323 326 328 329 330
290 290 291 291 291 291 291 291 291 290 288 287 286 286 286 287 288 289 290 291 293 294 296 298 300 302 305 307 309 311 313 314 315 316 316 317 317 317 317 316 315 315 314 312 311 311 310 310 311 311 311 310 309 307 305 303 303 306 309 311 309 305 302 301 301 301 301 301 303 305 307 308 308 308 308 308 309 312 316 321 325 327 328 329 330
289 289 290 290 290 290 290 290 289 288 287 286 285 285 286 287 288 289 290 292 293 295 297 299 300 303 305 308 310 311 313 314 315 316 316 317 317 317 317 316 315 314 313 312 311 309 309 310 312 312 312 311 310 307 305 303 303 305 308 310 309 305 302 301 301 302 302 302 303 306 308 309 309 308 308 308 310 313 317 321 326 328 328 330 331
288 289 289 290 289 289 289 288 287 286 285 284 284 285 286 286 288 289 291 292 294 296 298 299 301 304 306 308 310 311 313 314 315 316 316 317 317 317 316 316 315 314 313 311 309 308 309 311 313 313 313 312 310 308 306 304 303 303 305 308 308 305 302 302 302 303 303 303 304 306 308 309 309 309 309 310 312 315 319 323 327 329 329 331 333